When you browse on this site, cookies collect data to enhance your experience and personalize the content and advertising you see.
Visit our Privacy Policy to learn more. By continuing to use the site, you agree to this use of cookies and data.
  • In Belgium
  • List of Countries
  • For 7 days
  • Water Temperature
  • Weather Map
  • Weather Widgets
  • user-avatar
    Login

    Hourly Weather Kalgoorlie

    Today, 12 December, Thursday

    Time Temperature Precipitation Wind Pressure Humidity
    00:00 +21°C° 0 mm 7 mps 733 mmHg 41%
    01:00 +19°C° 0 mm 6 mps 732 mmHg 50%
    02:00 +17°C° 0 mm 6 mps 732 mmHg 54%
    03:00 +16°C° 0 mm 6 mps 733 mmHg 62%
    04:00 +15°C° 0 mm 6 mps 733 mmHg 69%
    05:00 +14°C° 0 mm 5 mps 733 mmHg 77%
    06:00 +16°C° 0 mm 6 mps 734 mmHg 68%
    07:00 +19°C° 0 mm 6 mps 734 mmHg 59%
    08:00 +22°C° 0 mm 6 mps 735 mmHg 49%
    09:00 +24°C° 0 mm 6 mps 734 mmHg 41%
    10:00 +27°C° 0 mm 6 mps 734 mmHg 32%
    11:00 +30°C° 0 mm 6 mps 734 mmHg 24%
    12:00 +32°C° 0 mm 6 mps 734 mmHg 21%
    13:00 +33°C° 0 mm 6 mps 733 mmHg 18%
    14:00 +35°C° 0 mm 5 mps 732 mmHg 15%
    15:00 +35°C° 0 mm 5 mps 732 mmHg 14%
    16:00 +35°C° 0 mm 5 mps 732 mmHg 14%
    17:00 +35°C° 0 mm 5 mps 732 mmHg 13%
    18:00 +33°C° 0 mm 5 mps 732 mmHg 15%
    19:00 +30°C° 0 mm 5 mps 732 mmHg 17%
    20:00 +28°C° 0 mm 5 mps 733 mmHg 19%
    21:00 +27°C° 0 mm 6 mps 733 mmHg 28%
    22:00 +24°C° 0 mm 8 mps 733 mmHg 37%
    23:00 +22°C° 0 mm 10 mps 734 mmHg 46%

    Tomorrow, 13 December, Friday

    Time Temperature Precipitation Wind Pressure Humidity
    00:00 +21°C° 0 mm 9 mps 733 mmHg 50%
    01:00 +20°C° 0 mm 8 mps 733 mmHg 54%
    02:00 +18°C° 0 mm 7 mps 733 mmHg 57%
    03:00 +19°C° 0 mm 6 mps 733 mmHg 59%
    04:00 +17°C° 0 mm 5 mps 733 mmHg 61%
    05:00 +16°C° 0 mm 5 mps 733 mmHg 64%
    06:00 +20°C° 0 mm 5 mps 733 mmHg 54%
    07:00 +23°C° 0 mm 6 mps 733 mmHg 45%
    08:00 +26°C° 0 mm 6 mps 734 mmHg 36%
    09:00 +29°C° 0 mm 5 mps 733 mmHg 30%
    10:00 +32°C° 0 mm 5 mps 733 mmHg 24%
    11:00 +34°C° 0 mm 5 mps 733 mmHg 18%
    12:00 +35°C° 0 mm 4 mps 732 mmHg 16%
    13:00 +36°C° 0 mm 4 mps 731 mmHg 14%
    14:00 +37°C° 0 mm 4 mps 731 mmHg 12%
    15:00 +37°C° 0 mm 4 mps 730 mmHg 12%
    16:00 +37°C° 0 mm 4 mps 730 mmHg 12%
    17:00 +38°C° 0 mm 4 mps 730 mmHg 12%
    18:00 +36°C° 0 mm 4 mps 730 mmHg 13%
    19:00 +34°C° 0 mm 4 mps 730 mmHg 15%
    20:00 +32°C° 0 mm 4 mps 730 mmHg 17%
    21:00 +30°C° 0 mm 4 mps 730 mmHg 18%
    22:00 +29°C° 0 mm 5 mps 730 mmHg 18%
    23:00 +28°C° 0 mm 5 mps 730 mmHg 19%

    Day after tomorrow, 14 December, Saturday

    Time Temperature Precipitation Wind Pressure Humidity
    00:00 +27°C° 0 mm 5 mps 730 mmHg 19%
    01:00 +26°C° 0 mm 5 mps 730 mmHg 18%
    02:00 +25°C° 0 mm 5 mps 729 mmHg 18%
    03:00 +25°C° 0 mm 5 mps 729 mmHg 20%
    04:00 +23°C° 0 mm 4 mps 730 mmHg 22%
    05:00 +22°C° 0 mm 4 mps 730 mmHg 24%
    06:00 +27°C° 0 mm 5 mps 730 mmHg 21%
    07:00 +30°C° 0 mm 6 mps 730 mmHg 18%
    08:00 +34°C° 0 mm 7 mps 730 mmHg 15%
    09:00 +35°C° 0 mm 5 mps 730 mmHg 14%
    10:00 +37°C° 0 mm 4 mps 729 mmHg 12%
    11:00 +38°C° 0 mm 3 mps 729 mmHg 10%
    12:00 +39°C° 0 mm 3 mps 728 mmHg 9%
    13:00 +39°C° 0 mm 3 mps 728 mmHg 8%
    14:00 +40°C° 0 mm 3 mps 727 mmHg 8%
    15:00 +40°C° 0 mm 2 mps 726 mmHg 8%
    16:00 +40°C° 0 mm 2 mps 726 mmHg 7%
    17:00 +40°C° 0 mm 2 mps 726 mmHg 7%
    18:00 +37°C° 0 mm 2 mps 726 mmHg 9%
    19:00 +35°C° 0 mm 2 mps 725 mmHg 10%
    20:00 +31°C° 0 mm 2 mps 725 mmHg 11%
    21:00 +31°C° 0 mm 3 mps 725 mmHg 13%
    22:00 +32°C° 0 mm 4 mps 725 mmHg 14%
    23:00 +30°C° 0 mm 4 mps 725 mmHg 15%

    15 December, Sunday

    Time Temperature Precipitation Wind Pressure Humidity
    00:00 +30°C° 0 mm 4 mps 725 mmHg 17%
    01:00 +29°C° 0 mm 3 mps 725 mmHg 18%
    02:00 +29°C° 0 mm 3 mps 724 mmHg 20%
    03:00 +28°C° 0 mm 3 mps 724 mmHg 21%
    04:00 +27°C° 0 mm 3 mps 725 mmHg 21%
    05:00 +27°C° 0 mm 3 mps 725 mmHg 22%
    06:00 +30°C° 0 mm 3 mps 725 mmHg 20%
    07:00 +34°C° 0 mm 3 mps 725 mmHg 17%
    08:00 +36°C° 0 mm 2 mps 726 mmHg 14%
    09:00 +38°C° 0 mm 4 mps 725 mmHg 15%
    10:00 +40°C° 0 mm 6 mps 725 mmHg 15%
    11:00 +43°C° 0 mm 8 mps 725 mmHg 16%
    12:00 +43°C° 0 mm 8 mps 725 mmHg 16%
    13:00 +43°C° 0 mm 7 mps 724 mmHg 16%
    14:00 +43°C° 0 mm 7 mps 723 mmHg 16%
    15:00 +41°C° 0 mm 7 mps 723 mmHg 18%
    16:00 +40°C° 0 mm 7 mps 723 mmHg 19%
    17:00 +39°C° 0 mm 8 mps 723 mmHg 20%
    18:00 +37°C° 0.2 mm 8 mps 724 mmHg 26%
    19:00 +34°C° 0.2 mm 9 mps 724 mmHg 31%
    20:00 +32°C° 0.2 mm 9 mps 724 mmHg 37%
    21:00 +31°C° 0.1 mm 8 mps 724 mmHg 38%
    22:00 +31°C° 0.1 mm 8 mps 724 mmHg 39%
    23:00 +29°C° 0.1 mm 7 mps 724 mmHg 40%

    16 December, Monday

    Time Temperature Precipitation Wind Pressure Humidity
    00:00 +28°C° 0 mm 6 mps 723 mmHg 43%
    01:00 +27°C° 0 mm 5 mps 723 mmHg 46%
    02:00 +27°C° 0 mm 5 mps 722 mmHg 49%
    03:00 +26°C° 0 mm 5 mps 722 mmHg 50%
    04:00 +26°C° 0 mm 5 mps 723 mmHg 52%
    05:00 +26°C° 0 mm 5 mps 723 mmHg 53%
    06:00 +28°C° 0 mm 6 mps 723 mmHg 45%
    07:00 +30°C° 0 mm 6 mps 724 mmHg 37%
    08:00 +34°C° 0 mm 7 mps 724 mmHg 30%
    09:00 +35°C° 0 mm 7 mps 724 mmHg 26%
    10:00 +38°C° 0 mm 7 mps 724 mmHg 23%
    11:00 +40°C° 0 mm 6 mps 724 mmHg 20%
    12:00 +41°C° 0 mm 6 mps 723 mmHg 19%
    13:00 +42°C° 0 mm 6 mps 723 mmHg 17%
    14:00 +42°C° 0 mm 6 mps 722 mmHg 16%
    15:00 +42°C° 0 mm 6 mps 722 mmHg 16%
    16:00 +41°C° 0 mm 6 mps 722 mmHg 17%
    17:00 +41°C° 0 mm 6 mps 722 mmHg 17%
    18:00 +39°C° 0 mm 5 mps 722 mmHg 19%
    19:00 +36°C° 0 mm 4 mps 723 mmHg 21%
    20:00 +35°C° 0 mm 2 mps 723 mmHg 23%
    21:00 +34°C° 0 mm 3 mps 723 mmHg 24%
    22:00 +33°C° 0 mm 3 mps 724 mmHg 26%
    23:00 +31°C° 0 mm 3 mps 724 mmHg 27%

    17 December, Tuesday

    Time Temperature Precipitation Wind Pressure Humidity
    00:00 +29°C° 0 mm 4 mps 724 mmHg 35%
    01:00 +27°C° 0 mm 5 mps 724 mmHg 43%
    02:00 +23°C° 0 mm 6 mps 724 mmHg 51%
    03:00 +22°C° 0 mm 6 mps 724 mmHg 54%
    04:00 +22°C° 0 mm 5 mps 724 mmHg 58%
    05:00 +21°C° 0 mm 5 mps 724 mmHg 61%
    06:00 +23°C° 0 mm 5 mps 725 mmHg 54%
    07:00 +26°C° 0 mm 5 mps 725 mmHg 47%
    08:00 +29°C° 0 mm 5 mps 726 mmHg 40%
    09:00 +33°C° 0 mm 4 mps 726 mmHg 33%
    10:00 +36°C° 0 mm 4 mps 726 mmHg 27%
    11:00 +39°C° 0 mm 3 mps 726 mmHg 21%
    12:00 +40°C° 0 mm 2 mps 725 mmHg 18%
    13:00 +41°C° 0 mm 1 mps 725 mmHg 15%
    14:00 +42°C° 0 mm 1 mps 724 mmHg 13%
    15:00 +43°C° 0 mm 1 mps 724 mmHg 12%
    16:00 +43°C° 0 mm 1 mps 724 mmHg 12%
    17:00 +43°C° 0 mm 1 mps 724 mmHg 12%
    18:00 +41°C° 0 mm 4 mps 724 mmHg 16%
    19:00 +39°C° 0 mm 7 mps 725 mmHg 20%
    20:00 +35°C° 0 mm 9 mps 725 mmHg 24%
    21:00 +34°C° 0 mm 9 mps 726 mmHg 31%
    22:00 +32°C° 0 mm 9 mps 726 mmHg 37%
    23:00 +29°C° 0 mm 10 mps 727 mmHg 44%
    Show more